• MPC Preparation (Info)

  • MPEC 2014-N59 : 2014 NB52

    The following Minor Planet Electronic Circular may be linked-to from your own Web pages, but must not otherwise be redistributed electronically.

    A form allowing access to any MPEC is at the bottom of this page.


    Read MPEC 2014-N58 Read MPEC 2014-N60


    M.P.E.C. 2014-N59                                Issued 2014 July  9, 14:03 UT
    
         The Minor Planet Electronic Circulars contain information on unusual
             minor planets and routine data on comets.  They are published
       on behalf of Commission 20 of the International Astronomical Union by the
              Minor Planet Center, Smithsonian Astrophysical Observatory,
                              Cambridge, MA 02138, U.S.A.
    
                 Prepared using the Tamkin Foundation Computer Network
    
                                  MPC@CFA.HARVARD.EDU
                URL https://www.minorplanetcenter.net/    ISSN 1523-6714
    
                                       2014 NB52
    
    Observations:
         K14N52B* C2014 07 03.51118 21 05 16.775+04 12 04.94         20.8 wLEN059F51
         K14N52B  C2014 07 03.52360 21 05 15.932+04 13 35.84         20.4 wLEN059F51
         K14N52B  C2014 07 03.53610 21 05 15.065+04 15 07.71         20.8 wLEN059F51
         K14N52B KC2014 07 04.29918421 04 31.93 +05 49 59.1          20.6 VcEN059H21
         K14N52B KC2014 07 04.30858921 04 31.27 +05 51 10.8          20.5 VcEN059H21
         K14N52B KC2014 07 04.31633821 04 30.71 +05 52 09.8          20.9 VcEN059H21
         K14N52B  C2014 07 04.45229 21 04 23.286+06 09 38.49         20.4 wLEN059F51
         K14N52B  C2014 07 04.46433 21 04 22.392+06 11 10.51         20.5 wLEN059F51
         K14N52B  C2014 07 04.47643 21 04 21.491+06 12 43.48         20.8 wLEN059F51
         K14N52B KC2014 07 07.00875 21 01 23.87 +11 54 33.3                qEN059J95
         K14N52B KC2014 07 07.02153 21 01 22.68 +11 56 22.7                qEN059J95
         K14N52B KC2014 07 07.02975 21 01 22.01 +11 57 32.9          20.9 RqEN059J95
         K14N52B KC2014 07 09.24025220 58 05.25 +17 25 52.8          20.4 VuEN059H21
         K14N52B KC2014 07 09.24578420 58 04.59 +17 26 44.2                uEN059H21
         K14N52B KC2014 07 09.25130520 58 03.98 +17 27 35.3                uEN059H21
         K14N52B KC2014 07 09.34497 20 57 53.67 +17 42 05.1          20.2 RqEN059H36
         K14N52B KC2014 07 09.35676 20 57 52.30 +17 43 54.7          20.3 RqEN059H36
         K14N52B IC2014 07 09.36264 20 57 51.60 +17 44 49.0          20.4 RqEN059H36
    
    Observer details:
    F51 Pan-STARRS 1, Haleakala.  Observers N. Primak, A. Schultz, T. Goggia,
        M. Willman.  1.8-m Ritchey-Chretien + CCD.
    H21 Astronomical Research Observatory, Westfield.  Observer R. Holmes.
        Measurers T. Linder, L. Buzzi, S. Foglia, T. Vorobjov, T. Lister.  0.61-m
        f/4.0 astrograph + CCD, 0.61-m f/4.5 astrograph + CCD.
    H36 Sandlot Observatory, Scranton.  Observer G. Hug.  0.56-m reflector + CCD.
    J95 Great Shefford.  Observer P. Birtwhistle.  0.40-m f/6.0 Schmidt-Cassegrain
        + CCD.
    
    Orbital elements:
    2014 NB52                                           PHA, Earth MOID = 0.0455 AU
    Epoch 2014 May 23.0 TT = JDT 2456800.5                  MPC
    M 267.92270              (2000.0)            P               Q
    n   0.70584236     Peri.  115.51298     +0.74131696     -0.53466642
    a   1.2492928      Node   279.39461     +0.36546099     +0.82856153
    e   0.3718499      Incl.   24.28030     +0.56292756     +0.16618545
    P   1.40           H   21.9           G   0.15           U   7
    Residuals in seconds of arc
    140703 F51  0.2-  0.1-    140704 F51  0.2-  0.3+    140709 H21  0.3+  0.2+
    140703 F51  0.1+  0.3-    140704 F51  0.1-  0.0     140709 H21  0.3-  0.2+
    140703 F51  0.1+  0.1-    140704 F51  0.0   0.1+    140709 H21  0.2-  0.0
    140704 H21  0.1+  0.4+    140707 J95  0.1+  0.1-    140709 H36  0.3+  0.0
    140704 H21  0.4+  0.5+    140707 J95  0.5-  0.0     140709 H36  0.0   0.2+
    140704 H21  0.3+  0.5+    140707 J95  0.5+  0.2-    140709 H36  0.4-  0.1-
    
    Ephemeris:
    2014 NB52                a,e,i = 1.25, 0.37, 24                  q = 0.7847
    Date    TT    R. A. (2000) Decl.     Delta      r     Elong.  Phase     V
    2014 06 09    21 04 12.4 -24 29 45   0.4584  1.3379   126.2    37.8    22.4
    ...
    2014 06 24    21 09 41.2 -11 11 58   0.3090  1.2557   135.5    34.5    21.3
    ...
    2014 07 02    21 06 31.7 +01 14 04   0.2460  1.2094   137.4    34.6    20.7
    ...
    2014 07 08    21 00 00.0 +14 18 42   0.2117  1.1737   134.0    38.5    20.4
    2014 07 09    20 58 27.7 +16 49 08   0.2074  1.1676   132.9    39.7    20.4
    2014 07 10    20 56 46.3 +19 24 36   0.2035  1.1616   131.6    40.9    20.4
    ...
    2014 07 16    20 42 40.0 +36 10 21   0.1904  1.1251   120.5    51.1    20.4
    ...
    2014 07 24    20 06 21.7 +57 50 54   0.1998  1.0759   102.2    67.4    20.9
    ...
    2014 08 08    15 54 13.3 +79 13 22   0.2702  0.9843    76.0    88.5    22.1
    
    A. U. Tomatic                (C) Copyright 2014 MPC           M.P.E.C. 2014-N59
    

    Read MPEC 2014-N58 Read MPEC 2014-N60


    MPEC number:

    Enter an MPEC number in one of the following forms:

    • 1997-B01 (the full form)
    • J97B01 (the packed version of the full form)
    • B01 (the abbreviated form)